[[{"header":{"parameterUnit":"m.s-1","parameterCategory":1,"la1":30.2991,"la2":30.254,"lo1":-89.0895,"lo2":-89.0444,"dy":0.0017,"dx":0.0017,"nx":28,"ny":28,"refTime":"2025-09-07T03:00:00:Z","depth":0,"parameterNumber":2,"parameterNumberName":"U-component_of_WINDS"},"data":[0,0,0,0,0,0,0,0,0,0,0,0,0,0,0,0,0,0,0,0,0,0,0,0,0,0,0,0,0,0,0,0,0,0,0,0,0,0,0,0,0,0,0,0,0,0,0,0,0,0,0,0,0,0,0,0,0,0,-0.6127,-0.6128,0,-0.6144,-0.6144,-0.6144,-0.6138,-0.6138,-0.6137,-0.6137,-0.6154,-0.6154,-0.6155,0,0,0,0,0,0,0,0,0,0,0,0,0,-0.6092,-0.6092,-0.6127,-0.6128,-0.6128,-0.6143,-0.6144,-0.6144,-0.6138,-0.6138,-0.6137,-0.6137,-0.6153,-0.6154,-0.6155,0,0,0,0,0,0,0,0,0,0,0,0,0,-0.6107,-0.6093,-0.6127,-0.6127,-0.6127,-0.6143,-0.6144,-0.6144,-0.6138,-0.6138,-0.6137,-0.6137,-0.6153,-0.6154,-0.6155,-0.6173,0,0,-0.6159,-0.616,0,0,0,0,0,0,0,0,-0.6107,-0.6109,-0.6127,-0.6127,-0.6127,-0.6138,-0.6137,-0.6154,-0.6138,-0.6134,-0.6137,-0.6136,-0.6149,-0.615,-0.6155,-0.6174,-0.6175,-0.6159,-0.616,-0.616,-0.6161,0,0,0,0,0,0,0,-0.6105,-0.6108,-0.6134,-0.6127,-0.6127,-0.6126,-0.6127,-0.614,-0.6144,-0.6134,-0.6134,-0.6136,-0.6149,-0.6154,-0.6155,-0.6175,-0.6159,-0.616,-0.6161,-0.6161,-0.6211,-0.6211,0,0,0,0,0,0,-0.6104,-0.6107,-0.6133,-0.6134,-0.6115,-0.6127,-0.6129,-0.6135,-0.6144,-0.6145,-0.6136,-0.6136,-0.6152,-0.6154,-0.6156,-0.6178,-0.616,-0.6161,-0.6162,-0.621,-0.6211,-0.6212,0,0,0,0,0,0,-0.6104,-0.6107,-0.6133,-0.6121,-0.6124,-0.6128,-0.6135,-0.6136,-0.614,-0.6146,-0.6146,-0.614,-0.6152,-0.6154,-0.6169,-0.6178,-0.6162,-0.6163,-0.6209,-0.621,-0.6211,-0.6222,0,0,0,0,0,0,-0.6103,-0.6106,-0.6113,-0.6121,-0.6124,-0.6146,-0.6136,-0.6137,-0.6142,-0.6142,-0.615,-0.615,-0.6151,-0.6167,-0.617,-0.618,-0.6164,-0.6209,-0.621,-0.6211,-0.6221,-0.6223,-0.6225,0,0,0,0,0,-0.6101,-0.6116,-0.6114,-0.6117,-0.6133,-0.6146,-0.6149,-0.6149,-0.6143,-0.615,-0.6154,-0.615,-0.6177,-0.6169,-0.6172,-0.6182,-0.6208,-0.621,-0.6211,-0.622,-0.6223,-0.6225,0,0,0,0,0,0,-0.6109,-0.6117,-0.6115,-0.6132,-0.6138,-0.6145,-0.6154,-0.6152,-0.6161,-0.616,-0.616,-0.6162,-0.6178,-0.6181,-0.6173,-0.62,-0.6191,-0.6194,-0.6197,-0.62,-0.6202,-0.6201,-0.6165,0,0,0,0,0,-0.6113,-0.6123,-0.6129,-0.6143,-0.6147,-0.615,-0.6156,-0.6156,-0.6163,-0.6166,-0.617,-0.6177,-0.6187,-0.6194,-0.6203,-0.6221,-0.6223,-0.6229,-0.6232,-0.6233,-0.6235,-0.6246,-0.6249,-0.6216,-0.6216,-0.6216,0,0,-0.6121,-0.6126,-0.6132,-0.6145,-0.615,-0.6161,-0.6153,-0.6164,-0.6172,-0.6167,-0.6182,-0.6186,-0.6193,-0.621,-0.6218,-0.6214,-0.6245,-0.6235,-0.6236,-0.6238,-0.6247,-0.6251,-0.6253,-0.6217,-0.6217,-0.6217,0,0,-0.614,-0.6145,-0.6158,-0.6164,-0.6172,-0.6174,-0.6177,-0.6184,-0.6186,-0.6201,-0.6198,-0.6207,-0.6224,-0.623,-0.6235,-0.6257,-0.6255,-0.626,-0.6272,-0.6282,-0.6285,-0.6287,-0.6295,-0.6298,-0.6262,-0.6262,-0.6262,0,-0.6149,-0.6165,-0.6165,-0.6177,-0.6183,-0.6179,-0.6193,-0.6198,-0.6208,-0.6213,-0.6208,-0.6229,-0.6234,-0.6253,-0.6258,-0.6262,-0.6266,-0.626,-0.6284,-0.6286,-0.6289,-0.6297,-0.63,-0.6263,-0.6263,-0.6263,-0.6263,0,-0.6176,-0.6187,-0.6196,-0.6207,-0.6214,-0.6226,-0.6228,-0.6235,-0.6234,-0.6237,-0.6252,-0.6258,-0.6269,-0.6273,-0.6272,-0.6291,-0.6289,-0.6284,-0.6275,-0.6292,-0.63,-0.6303,-0.6264,-0.6264,-0.6263,-0.6263,0,0,-0.6202,-0.6212,-0.6216,-0.6221,-0.6229,-0.6238,-0.625,-0.626,-0.6267,-0.6274,-0.6285,-0.6299,-0.6295,-0.6301,-0.63,-0.6309,-0.6327,-0.6304,-0.6304,-0.6308,-0.6349,-0.6354,-0.6357,-0.6325,-0.6326,-0.6326,-0.6349,0,-0.6223,-0.6245,-0.6245,-0.6265,-0.6276,-0.6272,-0.6283,-0.6289,-0.6292,-0.6301,-0.6304,-0.6314,-0.6308,-0.6311,-0.632,-0.6323,-0.6336,-0.6321,-0.6336,-0.6336,-0.6335,-0.6361,-0.6365,-0.6387,-0.6352,-0.6352,-0.6353,0,-0.625,-0.6259,-0.628,-0.6287,-0.6292,-0.6302,-0.6311,-0.632,-0.6327,-0.6329,-0.6335,-0.6334,-0.6347,-0.6337,-0.6355,-0.6345,-0.6351,-0.6354,-0.6354,-0.6356,-0.6346,-0.6364,-0.6393,-0.6397,-0.6357,-0.6357,-0.6357,0,-0.6268,-0.6284,-0.63,-0.6304,-0.6312,-0.632,-0.6323,-0.633,-0.6337,-0.6345,-0.6349,-0.6359,-0.6365,-0.6372,-0.6373,-0.6366,-0.6392,-0.6382,-0.6393,-0.6393,-0.64,-0.6399,-0.6431,-0.6402,-0.6402,-0.6402,-0.6402,0,-0.6292,-0.6305,-0.6308,-0.6317,-0.6332,-0.6332,-0.6347,-0.635,-0.6356,-0.6366,-0.6363,-0.6373,-0.6373,-0.6383,-0.6384,-0.6399,-0.6402,-0.6403,-0.6404,-0.6404,-0.6404,-0.6408,-0.6407,-0.6403,-0.6402,-0.6402,-0.6402,0,-0.6314,-0.6316,-0.6333,-0.634,-0.6342,-0.6352,-0.6358,-0.6367,-0.6369,-0.6382,-0.6385,-0.6389,-0.64,-0.6402,-0.6415,-0.6416,-0.6434,-0.6432,-0.6432,-0.6432,-0.6443,-0.6443,-0.6479,-0.6484,-0.6452,-0.6452,-0.6452,0,-0.633,-0.634,-0.6348,-0.6355,-0.6359,-0.637,-0.6376,-0.6377,-0.6384,-0.6393,-0.6401,-0.6412,-0.6421,-0.6439,-0.6443,-0.6453,-0.6452,-0.6464,-0.6454,-0.6454,-0.6453,-0.6453,-0.6454,-0.6467,-0.6467,-0.6467,-0.6467,0,-0.6357,-0.6358,-0.6368,-0.6378,-0.6386,-0.6394,-0.6401,-0.6406,-0.6408,-0.6416,-0.6428,-0.6434,-0.6448,-0.6459,-0.6469,-0.6474,-0.6471,-0.6471,-0.6474,-0.6475,-0.6475,-0.6476,-0.6438,-0.647,-0.647,-0.647,-0.6469,-0.6469,-0.6377,-0.6387,-0.6394,-0.6405,-0.641,-0.6417,-0.6426,-0.643,-0.644,-0.6451,-0.645,-0.6463,-0.647,-0.6484,-0.6489,-0.6499,-0.6495,-0.65,-0.6501,-0.6502,-0.6504,-0.6472,-0.6501,-0.65,-0.65,-0.65,-0.65,0,-0.6406,-0.641,-0.642,-0.6431,-0.6439,-0.6436,-0.6444,-0.6451,-0.6463,-0.647,-0.6479,-0.6492,-0.6503,-0.6508,-0.6518,-0.6526,-0.6525,-0.6529,-0.6529,-0.653,-0.6506,-0.6503,-0.6529,-0.6529,-0.6529,-0.6529,-0.6529,-0.6529,-0.6421,-0.6437,-0.6438,-0.6457,-0.6461,-0.6474,-0.6479,-0.6485,-0.6491,-0.6506,-0.6515,-0.6518,-0.6524,-0.6535,-0.6545,-0.6546,-0.6551,-0.6555,-0.6556,-0.6534,-0.6531,-0.6529,-0.6525,-0.6556,-0.6556,-0.6579,-0.6579,-0.6579]},{"header":{"parameterUnit":"m.s-1","parameterCategory":1,"la1":30.2991,"la2":30.254,"lo1":-89.0895,"lo2":-89.0444,"dy":0.0017,"dx":0.0017,"nx":28,"ny":28,"refTime":"2025-09-07T03:00:00:Z","depth":0,"parameterNumber":3,"parameterNumberName":"V-component_of_WINDS"},"data":[0,0,0,0,0,0,0,0,0,0,0,0,0,0,0,0,0,0,0,0,0,0,0,0,0,0,0,0,0,0,0,0,0,0,0,0,0,0,0,0,0,0,0,0,0,0,0,0,0,0,0,0,0,0,0,0,0,0,-3.3174,-3.3175,0,-3.321,-3.321,-3.3211,-3.3193,-3.3192,-3.3191,-3.319,-3.3223,-3.3225,-3.3227,0,0,0,0,0,0,0,0,0,0,0,0,0,-3.3089,-3.309,-3.3174,-3.3175,-3.3175,-3.321,-3.321,-3.3211,-3.3193,-3.3192,-3.3191,-3.319,-3.3223,-3.3225,-3.3227,0,0,0,0,0,0,0,0,0,0,0,0,0,-3.3125,-3.3091,-3.3174,-3.317,-3.317,-3.321,-3.321,-3.3211,-3.3193,-3.3192,-3.319,-3.3189,-3.3222,-3.3224,-3.3227,-3.3271,0,0,-3.3235,-3.3236,0,0,0,0,0,0,0,0,-3.3123,-3.3128,-3.3171,-3.3171,-3.3171,-3.3195,-3.3192,-3.3231,-3.3193,-3.3184,-3.319,-3.3188,-3.3215,-3.3218,-3.3227,-3.3272,-3.3274,-3.3235,-3.3237,-3.3238,-3.3239,0,0,0,0,0,0,0,-3.312,-3.3127,-3.3188,-3.3171,-3.3171,-3.3166,-3.317,-3.3199,-3.3207,-3.3185,-3.3184,-3.3188,-3.3215,-3.3225,-3.3228,-3.3274,-3.3235,-3.3237,-3.3239,-3.324,-3.3359,-3.336,0,0,0,0,0,0,-3.3118,-3.3125,-3.3187,-3.3189,-3.3143,-3.3169,-3.3173,-3.3189,-3.3206,-3.3208,-3.319,-3.3188,-3.3221,-3.3225,-3.3229,-3.3284,-3.3238,-3.324,-3.3242,-3.3357,-3.3359,-3.3361,0,0,0,0,0,0,-3.3117,-3.3124,-3.3186,-3.3157,-3.3164,-3.3172,-3.319,-3.319,-3.3201,-3.321,-3.3211,-3.3199,-3.322,-3.3226,-3.3261,-3.3284,-3.3241,-3.3244,-3.3355,-3.3358,-3.336,-3.3391,0,0,0,0,0,0,-3.3114,-3.3124,-3.3141,-3.3157,-3.3166,-3.3218,-3.3191,-3.3192,-3.3206,-3.3203,-3.3219,-3.322,-3.322,-3.3258,-3.3264,-3.3287,-3.3246,-3.3353,-3.3356,-3.3359,-3.3388,-3.3395,-3.34,0,0,0,0,0,-3.3111,-3.3147,-3.3142,-3.315,-3.3188,-3.3219,-3.3224,-3.3223,-3.3208,-3.3225,-3.3231,-3.322,-3.328,-3.3261,-3.3268,-3.3293,-3.3352,-3.3355,-3.3359,-3.3386,-3.3393,-3.34,0,0,0,0,0,0,-3.3132,-3.3149,-3.3144,-3.3186,-3.3201,-3.3216,-3.3238,-3.3231,-3.325,-3.3247,-3.3244,-3.3248,-3.3286,-3.3292,-3.3271,-3.3337,-3.3314,-3.3319,-3.3332,-3.3339,-3.3345,-3.3343,-3.3248,0,0,0,0,0,-3.3141,-3.3167,-3.318,-3.3216,-3.3224,-3.323,-3.3243,-3.3242,-3.3257,-3.3263,-3.3272,-3.3287,-3.3309,-3.3324,-3.3345,-3.3389,-3.3393,-3.3409,-3.3415,-3.3419,-3.3424,-3.345,-3.3458,-3.3372,-3.3372,-3.3372,0,0,-3.3161,-3.3174,-3.319,-3.322,-3.3232,-3.3258,-3.3235,-3.3263,-3.3282,-3.3267,-3.3303,-3.3309,-3.3325,-3.3366,-3.3384,-3.3373,-3.3449,-3.3424,-3.3428,-3.343,-3.3454,-3.3462,-3.347,-3.3375,-3.3374,-3.3374,0,0,-3.3211,-3.3223,-3.3255,-3.3268,-3.3287,-3.3291,-3.3298,-3.3315,-3.3319,-3.3355,-3.3345,-3.3367,-3.3405,-3.3418,-3.3429,-3.3485,-3.3476,-3.3492,-3.3523,-3.3547,-3.3554,-3.356,-3.3582,-3.359,-3.3496,-3.3497,-3.3497,0,-3.3233,-3.3273,-3.3272,-3.3302,-3.3316,-3.3305,-3.3338,-3.335,-3.3374,-3.3384,-3.3371,-3.3421,-3.343,-3.3475,-3.3489,-3.3498,-3.3507,-3.3491,-3.3553,-3.3559,-3.3565,-3.3586,-3.3594,-3.3498,-3.3498,-3.3498,-3.3498,0,-3.33,-3.3328,-3.3351,-3.3378,-3.3394,-3.3425,-3.3429,-3.3446,-3.3443,-3.3448,-3.3485,-3.3496,-3.352,-3.353,-3.3526,-3.3575,-3.3567,-3.3554,-3.3531,-3.3575,-3.3595,-3.3603,-3.3501,-3.3501,-3.35,-3.35,0,0,-3.3364,-3.3391,-3.34,-3.3412,-3.3433,-3.3454,-3.3484,-3.3509,-3.3525,-3.3541,-3.3568,-3.3601,-3.359,-3.3603,-3.36,-3.3622,-3.3668,-3.3606,-3.3606,-3.3619,-3.3724,-3.3735,-3.3744,-3.3662,-3.3663,-3.3664,-3.3723,0,-3.3417,-3.3473,-3.3474,-3.3524,-3.3551,-3.3541,-3.3568,-3.3583,-3.3588,-3.3611,-3.3616,-3.3641,-3.3622,-3.3631,-3.3651,-3.3658,-3.3689,-3.3653,-3.3686,-3.3688,-3.3685,-3.3754,-3.3766,-3.3821,-3.373,-3.3732,-3.3732,0,-3.3487,-3.3509,-3.3563,-3.3581,-3.3592,-3.3617,-3.3641,-3.3662,-3.3679,-3.3682,-3.3697,-3.3692,-3.3723,-3.3698,-3.3741,-3.3717,-3.373,-3.3735,-3.3737,-3.3742,-3.3714,-3.3762,-3.3838,-3.3847,-3.3744,-3.3743,-3.3742,0,-3.3531,-3.3573,-3.3612,-3.3622,-3.3644,-3.3662,-3.3672,-3.3688,-3.3703,-3.3724,-3.3734,-3.3757,-3.377,-3.3788,-3.3789,-3.377,-3.3833,-3.3807,-3.3837,-3.3837,-3.3852,-3.3851,-3.3933,-3.3857,-3.3857,-3.3857,-3.3856,0,-3.3591,-3.3625,-3.3632,-3.3656,-3.3694,-3.3694,-3.3731,-3.3739,-3.3754,-3.3779,-3.377,-3.3794,-3.3793,-3.3817,-3.3817,-3.3854,-3.3859,-3.3862,-3.3863,-3.3864,-3.3864,-3.3874,-3.3871,-3.3859,-3.3858,-3.3858,-3.3858,0,-3.3648,-3.3653,-3.3695,-3.3713,-3.3719,-3.3746,-3.3761,-3.3784,-3.3789,-3.3821,-3.3828,-3.3835,-3.3863,-3.3866,-3.3897,-3.3897,-3.3943,-3.3937,-3.3938,-3.3937,-3.3967,-3.3965,-3.406,-3.4073,-3.3987,-3.3987,-3.3988,0,-3.3687,-3.3713,-3.3735,-3.3752,-3.3763,-3.379,-3.3807,-3.3808,-3.3825,-3.3848,-3.3868,-3.3895,-3.3917,-3.3961,-3.3969,-3.3993,-3.399,-3.4021,-3.3993,-3.3995,-3.3993,-3.3992,-3.3996,-3.4027,-3.4028,-3.4029,-3.403,0,-3.3756,-3.3759,-3.3784,-3.381,-3.3831,-3.3851,-3.387,-3.3884,-3.3888,-3.3908,-3.3937,-3.3954,-3.3987,-3.4015,-3.4039,-3.4048,-3.404,-3.4038,-3.4047,-3.405,-3.405,-3.4052,-3.3955,-3.4036,-3.4036,-3.4035,-3.4035,-3.4035,-3.3807,-3.3831,-3.3851,-3.3879,-3.3894,-3.3913,-3.3936,-3.3944,-3.3969,-3.3997,-3.3996,-3.4028,-3.4045,-3.4077,-3.4088,-3.4113,-3.4103,-3.4114,-3.4118,-3.4121,-3.4125,-3.4044,-3.4117,-3.4117,-3.4117,-3.4117,-3.4117,0,-3.3878,-3.3891,-3.3917,-3.3945,-3.3968,-3.3959,-3.398,-3.4,-3.4029,-3.4046,-3.4069,-3.4103,-3.413,-3.414,-3.4166,-3.4184,-3.4181,-3.4191,-3.4191,-3.4193,-3.4132,-3.4123,-3.4193,-3.4193,-3.4193,-3.4193,-3.4193,-3.4193,-3.3918,-3.3959,-3.3963,-3.4011,-3.4023,-3.4057,-3.407,-3.4087,-3.4101,-3.414,-3.4163,-3.417,-3.4184,-3.4212,-3.4236,-3.4238,-3.4249,-3.4261,-3.4262,-3.4205,-3.4197,-3.419,-3.4182,-3.4263,-3.4263,-3.4321,-3.4322,-3.4322]}]]